FW6054 Weather Reports


time (UTC)temp
C
wind
direction
speed
KPH
gust
KPH
rain 1hr
cm
rain 24hr
cm
rain mn
cm
humidity
%
barometer
mb
20260506180058 16 0 3.2 14.5 0.08 0.66 0.53 94 1005.1
20260506174553 16 287 1.6 6.4 0.10 0.66 0.53 95 1005.1
20260506173052 16 189 3.2 14.5 0.10 0.64 0.51 95 1005.0
20260506171552 16 155 1.6 16.1 0.13 0.61 0.48 95 1004.9
20260506170108 15 84 3.2 12.9 0.15 0.58 0.46 95 1005.2
20260506164550 15 211 1.6 8.0 0.18 0.56 0.43 95 1005.6
20260506163102 14 0 1.6 6.4 0.20 0.53 0.41 94 1005.6
20260506161553 14 0 0.0 3.2 0.18 0.48 0.36 94 1005.7
20260506160056 13 0 0.0 3.2 0.15 0.43 0.30 93 1005.9
20260506154555 13 0 0.0 3.2 0.13 0.38 0.25 93 1006.3
20260506153053 13 0 0.0 1.6 0.13 0.33 0.20 93 1006.4
20260506151550 13 0 0.0 0.0 0.15 0.30 0.18 92 1006.5
20260506150049 13 0 0.0 0.0 0.15 0.28 0.15 92 1006.7
20260506144603 13 0 0.0 0.0 0.13 0.25 0.13 91 1006.9
20260506143055 13 0 0.0 1.6 0.08 0.20 0.08 90 1007.4
20260506141553 13 0 0.0 1.6 0.03 0.15 0.03 89 1007.5
20260506140053 13 0 0.0 1.6 0.00 0.13 0.00 88 1007.2
20260506134549 13 0 0.0 1.6 0.00 0.13 0.00 87 1007.2
20260506133054 13 0 0.0 3.2 0.00 0.13 0.00 88 1007.0
20260506131552 13 0 0.0 1.6 0.00 0.13 0.00 88 1006.9
20260506130058 13 0 0.0 1.6 0.00 0.13 0.00 89 1007.1
20260506124550 13 0 0.0 1.6 0.00 0.13 0.00 88 1007.0
20260506123052 13 0 0.0 4.8 0.00 0.13 0.00 88 1007.5
20260506121553 13 0 0.0 1.6 0.00 0.13 0.00 88 1008.0
20260506120055 13 0 0.0 3.2 0.00 0.13 0.00 88 1007.7
20260506114553 13 0 0.0 1.6 0.00 0.13 0.00 88 1007.8
20260506113049 13 0 0.0 3.2 0.00 0.13 0.00 88 1007.4
20260506111551 12 0 0.0 3.2 0.00 0.13 0.00 88 1007.5
20260506110054 12 0 0.0 3.2 0.00 0.13 0.00 89 1006.9
20260506104551 12 0 0.0 1.6 0.00 0.13 0.00 88 1007.1
20260506103053 12 0 0.0 3.2 0.00 0.13 0.00 89 1007.4
20260506101550 12 0 0.0 0.0 0.00 0.13 0.00 88 1007.0
20260506100050 12 0 0.0 0.0 0.00 0.13 0.00 88 1006.9
20260506094603 12 0 0.0 0.0 0.00 0.13 0.00 88 1006.8
20260506093053 12 0 0.0 0.0 0.00 0.13 0.00 87 1006.8
20260506091604 12 0 0.0 0.0 0.00 0.13 0.00 87 1006.8
20260506090056 12 0 0.0 0.0 0.00 0.13 0.00 86 1006.9
20260506084612 13 0 0.0 0.0 0.00 0.13 0.00 86 1007.1
20260506083050 13 0 0.0 0.0 0.00 0.13 0.00 85 1007.4
20260506081548 13 0 0.0 1.6 0.00 0.13 0.00 85 1007.3
20260506073057 13 0 0.0 0.0 0.00 0.13 0.00 86 1007.9
20260506071553 13 0 0.0 0.0 0.00 0.13 0.00 85 1008.0
20260506061600 13 0 0.0 3.2 0.00 0.13 0.00 84 1008.5
20260506050110 15 0 0.0 0.0 0.00 0.13 0.00 84 1008.5
20260506044554 15 0 0.0 3.2 0.00 0.13 0.00 82 1008.7
20260506043101 15 355 1.6 8.0 0.00 0.13 0.00 82 1008.5
20260506041557 15 0 0.0 6.4 0.00 0.13 0.00 83 1008.5
20260506040104 15 53 1.6 9.7 0.00 0.13 0.00 85 1008.2
20260506034604 16 34 0.0 14.5 0.08 0.13 0.13 87 1008.1
20260506033059 16 12 3.2 9.7 0.10 0.13 0.13 89 1007.9
20260506031600 16 330 1.6 6.4 0.10 0.13 0.13 90 1007.5
20260506030107 16 0 0.0 6.4 0.10 0.13 0.13 90 1007.6
20260506024602 17 18 0.0 3.2 0.03 0.05 0.05 89 1008.1
20260506023114 17 0 0.0 0.0 0.00 0.03 0.03 88 1007.4
20260506021608 17 0 0.0 0.0 0.00 0.03 0.03 87 1007.4
20260506020059 17 0 0.0 0.0 0.00 0.03 0.03 85 1007.2
20260506014557 17 0 0.0 1.6 0.00 0.03 0.03 84 1007.3
20260506013059 17 0 0.0 0.0 0.00 0.03 0.03 84 1007.0
20260506011603 17 0 0.0 0.0 0.00 0.03 0.03 83 1007.0
20260506010051 18 0 0.0 1.6 0.00 0.03 0.03 83 1006.9
20260506004552 18 0 0.0 1.6 0.00 0.03 0.03 82 1006.8
20260506003049 18 22 0.0 1.6 0.00 0.03 0.03 82 1006.8
20260506001551 18 0 0.0 3.2 0.00 0.03 0.03 81 1006.2
20260506000052 18 0 0.0 0.0 0.00 0.03 0.03 80 1006.0
20260505234600 18 0 0.0 1.6 0.00 0.03 0.03 80 1006.0
20260505233049 18 0 0.0 1.6 0.00 0.03 0.03 80 1005.8
20260505231604 18 0 0.0 1.6 0.00 0.03 0.03 81 1005.6
20260505230055 18 0 0.0 1.6 0.00 0.03 0.03 81 1005.9
20260505224552 18 0 0.0 1.6 0.03 0.03 0.03 80 1005.9
20260505223102 18 0 0.0 3.2 0.03 0.03 0.03 78 1005.7
20260505221557 18 0 0.0 9.7 0.03 0.03 0.03 78 1006.1
20260505220052 19 339 3.2 14.5 0.03 0.03 0.03 75 1005.9
20260505214612 21 335 4.8 19.3 0.00 0.00 0.00 65 1005.3
20260505213100 25 238 3.2 14.5 0.00 0.00 0.00 49 1004.6
20260505211558 27 197 4.8 14.5 0.00 0.00 0.00 36 1003.6
20260505210055 27 213 6.4 19.3 0.00 0.00 0.00 36 1003.1
20260505204553 27 224 3.2 14.5 0.00 0.00 0.00 38 1002.9
20260505203050 27 188 3.2 19.3 0.00 0.00 0.00 37 1002.7
20260505201556 28 241 6.4 19.3 0.00 0.00 0.00 29 1002.7
20260505194552 27 168 1.6 9.7 0.00 0.00 0.00 40 1002.8
20260505193052 28 197 3.2 16.1 0.00 0.00 0.00 40 1002.9
20260505191554 27 113 3.2 14.5 0.00 0.00 0.00 41 1003.2
20260505190056 27 156 3.2 12.9 0.00 0.00 0.00 42 1003.2
20260505184551 27 239 4.8 16.1 0.00 0.00 0.00 41 1003.3
20260505183104 27 212 4.8 17.7 0.00 0.00 0.00 42 1003.4
20260505181553 27 78 4.8 24.1 0.00 0.00 0.00 42 1003.5